Hourly Weather Bolshoy Dolzhik

Today, 25 July, Sunday

Time Temperature Precipitation Wind Pressure Humidity
00:00 +24°C° 0 mm 2 mps 758 mmHg 45%
01:00 +24°C° 0 mm 2 mps 758 mmHg 47%
02:00 +24°C° 0 mm 3 mps 758 mmHg 49%
03:00 +22°C° 0 mm 3 mps 759 mmHg 51%
04:00 +22°C° 0 mm 3 mps 759 mmHg 54%
05:00 +21°C° 0 mm 3 mps 759 mmHg 57%
06:00 +21°C° 0 mm 2 mps 759 mmHg 59%
07:00 +24°C° 0 mm 3 mps 760 mmHg 54%
08:00 +27°C° 0 mm 3 mps 760 mmHg 48%
09:00 +29°C° 0 mm 4 mps 760 mmHg 42%
10:00 +30°C° 0 mm 3 mps 760 mmHg 38%
11:00 +31°C° 0 mm 3 mps 760 mmHg 34%
12:00 +33°C° 0 mm 3 mps 760 mmHg 30%
13:00 +34°C° 0 mm 3 mps 760 mmHg 29%
14:00 +34°C° 0 mm 3 mps 760 mmHg 28%
15:00 +34°C° 0 mm 3 mps 760 mmHg 27%
16:00 +34°C° 0 mm 3 mps 760 mmHg 28%
17:00 +34°C° 0 mm 3 mps 760 mmHg 29%
18:00 +34°C° 0 mm 3 mps 760 mmHg 31%
19:00 +31°C° 0 mm 3 mps 760 mmHg 34%
20:00 +29°C° 0 mm 3 mps 760 mmHg 37%
21:00 +28°C° 0 mm 3 mps 760 mmHg 41%
22:00 +27°C° 0 mm 3 mps 760 mmHg 43%
23:00 +26°C° 0 mm 3 mps 761 mmHg 45%

Tomorrow, 26 July, Monday

Time Temperature Precipitation Wind Pressure Humidity
00:00 +25°C° 0 mm 3 mps 761 mmHg 47%
01:00 +25°C° 0 mm 3 mps 761 mmHg 48%
02:00 +24°C° 0 mm 3 mps 761 mmHg 50%
03:00 +24°C° 0 mm 3 mps 761 mmHg 52%
04:00 +24°C° 0 mm 3 mps 761 mmHg 53%
05:00 +22°C° 0 mm 3 mps 761 mmHg 54%
06:00 +22°C° 0 mm 3 mps 761 mmHg 56%
07:00 +26°C° 0 mm 4 mps 761 mmHg 50%
08:00 +28°C° 0 mm 4 mps 761 mmHg 45%
09:00 +30°C° 0 mm 5 mps 761 mmHg 39%
10:00 +32°C° 0 mm 5 mps 761 mmHg 36%
11:00 +33°C° 0 mm 5 mps 761 mmHg 32%
12:00 +35°C° 0 mm 6 mps 761 mmHg 29%
13:00 +35°C° 0 mm 5 mps 761 mmHg 28%
14:00 +36°C° 0 mm 5 mps 761 mmHg 27%
15:00 +36°C° 0 mm 5 mps 760 mmHg 26%
16:00 +35°C° 0 mm 5 mps 760 mmHg 29%
17:00 +34°C° 0 mm 4 mps 760 mmHg 31%
18:00 +33°C° 0 mm 4 mps 760 mmHg 34%
19:00 +32°C° 0.1 mm 4 mps 760 mmHg 35%
20:00 +30°C° 0.1 mm 4 mps 761 mmHg 37%
21:00 +29°C° 0.1 mm 4 mps 761 mmHg 39%
22:00 +28°C° 0 mm 4 mps 761 mmHg 39%
23:00 +28°C° 0 mm 5 mps 761 mmHg 39%

Day after tomorrow, 27 July, Tuesday

Time Temperature Precipitation Wind Pressure Humidity
00:00 +28°C° 0 mm 5 mps 761 mmHg 39%
01:00 +27°C° 0 mm 5 mps 761 mmHg 40%
02:00 +27°C° 0 mm 5 mps 761 mmHg 41%
03:00 +27°C° 0 mm 5 mps 762 mmHg 42%
04:00 +26°C° 0 mm 5 mps 762 mmHg 43%
05:00 +26°C° 0 mm 4 mps 762 mmHg 44%
06:00 +26°C° 0 mm 4 mps 762 mmHg 45%
07:00 +27°C° 0 mm 4 mps 762 mmHg 42%
08:00 +28°C° 0 mm 4 mps 762 mmHg 40%
09:00 +29°C° 0 mm 4 mps 762 mmHg 37%
10:00 +30°C° 0 mm 5 mps 762 mmHg 34%
11:00 +32°C° 0 mm 5 mps 762 mmHg 31%
12:00 +33°C° 0 mm 5 mps 762 mmHg 28%
13:00 +34°C° 0 mm 4 mps 762 mmHg 27%
14:00 +34°C° 0 mm 4 mps 761 mmHg 25%
15:00 +35°C° 0 mm 3 mps 761 mmHg 24%
16:00 +34°C° 0 mm 3 mps 761 mmHg 25%
17:00 +34°C° 0 mm 3 mps 761 mmHg 26%
18:00 +34°C° 0 mm 3 mps 761 mmHg 27%
19:00 +31°C° 0 mm 3 mps 761 mmHg 31%
20:00 +29°C° 0 mm 3 mps 761 mmHg 34%
21:00 +27°C° 0 mm 3 mps 761 mmHg 38%
22:00 +27°C° 0 mm 2 mps 761 mmHg 37%
23:00 +26°C° 0 mm 2 mps 761 mmHg 37%

28 July, Wednesday

Time Temperature Precipitation Wind Pressure Humidity
00:00 +26°C° 0 mm 2 mps 761 mmHg 37%
01:00 +25°C° 0 mm 1 mps 761 mmHg 38%
02:00 +24°C° 0 mm 1 mps 761 mmHg 39%
03:00 +24°C° 0 mm 1 mps 761 mmHg 39%
04:00 +24°C° 0 mm 1 mps 761 mmHg 41%
05:00 +24°C° 0 mm 1 mps 762 mmHg 42%
06:00 +24°C° 0 mm 1 mps 762 mmHg 44%
07:00 +26°C° 0 mm 1 mps 762 mmHg 39%
08:00 +28°C° 0 mm 1 mps 762 mmHg 35%
09:00 +30°C° 0 mm 1 mps 761 mmHg 30%
10:00 +31°C° 0 mm 1 mps 761 mmHg 28%
11:00 +32°C° 0 mm 1 mps 761 mmHg 26%
12:00 +34°C° 0 mm 1 mps 761 mmHg 24%
13:00 +34°C° 0 mm 1 mps 760 mmHg 23%
14:00 +34°C° 0 mm 1 mps 760 mmHg 22%
15:00 +35°C° 0 mm 1 mps 760 mmHg 22%
16:00 +34°C° 0 mm 1 mps 760 mmHg 23%
17:00 +34°C° 0 mm 1 mps 759 mmHg 24%
18:00 +34°C° 0 mm 1 mps 759 mmHg 25%
19:00 +32°C° 0 mm 1 mps 759 mmHg 28%
20:00 +30°C° 0 mm 2 mps 759 mmHg 31%
21:00 +28°C° 0 mm 2 mps 759 mmHg 34%
22:00 +27°C° 0 mm 2 mps 759 mmHg 37%
23:00 +26°C° 0 mm 2 mps 759 mmHg 40%

29 July, Thursday

Time Temperature Precipitation Wind Pressure Humidity
00:00 +26°C° 0 mm 2 mps 759 mmHg 44%
01:00 +25°C° 0 mm 2 mps 759 mmHg 45%
02:00 +25°C° 0 mm 1 mps 759 mmHg 47%
03:00 +24°C° 0 mm 1 mps 759 mmHg 49%
04:00 +24°C° 0 mm 2 mps 759 mmHg 50%
05:00 +24°C° 0 mm 2 mps 759 mmHg 51%
06:00 +24°C° 0 mm 2 mps 759 mmHg 52%
07:00 +26°C° 0 mm 2 mps 759 mmHg 47%
08:00 +28°C° 0 mm 2 mps 758 mmHg 43%
09:00 +30°C° 0 mm 3 mps 758 mmHg 38%
10:00 +31°C° 0 mm 3 mps 758 mmHg 36%
11:00 +31°C° 0 mm 3 mps 758 mmHg 35%
12:00 +33°C° 0 mm 4 mps 758 mmHg 33%
13:00 +34°C° 0 mm 4 mps 757 mmHg 32%
14:00 +35°C° 0 mm 4 mps 757 mmHg 30%
15:00 +36°C° 0 mm 4 mps 757 mmHg 29%
16:00 +35°C° 0 mm 4 mps 756 mmHg 32%
17:00 +34°C° 0 mm 4 mps 756 mmHg 35%
18:00 +34°C° 0 mm 4 mps 756 mmHg 39%
19:00 +31°C° 0 mm 3 mps 756 mmHg 43%
20:00 +30°C° 0 mm 3 mps 756 mmHg 48%
21:00 +28°C° 0 mm 2 mps 756 mmHg 53%
22:00 +28°C° 0 mm 2 mps 756 mmHg 54%
23:00 +28°C° 0 mm 2 mps 756 mmHg 55%

30 July, Friday

Time Temperature Precipitation Wind Pressure Humidity
00:00 +27°C° 0 mm 2 mps 756 mmHg 57%
01:00 +27°C° 0 mm 2 mps 756 mmHg 58%
02:00 +26°C° 0 mm 2 mps 756 mmHg 59%
03:00 +26°C° 0 mm 2 mps 756 mmHg 61%
04:00 +26°C° 0 mm 2 mps 756 mmHg 60%
05:00 +26°C° 0 mm 2 mps 756 mmHg 60%
06:00 +26°C° 0 mm 2 mps 756 mmHg 60%
07:00 +28°C° 0 mm 2 mps 757 mmHg 54%
08:00 +30°C° 0 mm 2 mps 757 mmHg 48%
09:00 +33°C° 0 mm 3 mps 757 mmHg 41%
10:00 +34°C° 0 mm 3 mps 757 mmHg 38%
11:00 +35°C° 0 mm 3 mps 756 mmHg 35%
12:00 +36°C° 0 mm 3 mps 756 mmHg 31%
13:00 +36°C° 0 mm 3 mps 756 mmHg 30%
14:00 +37°C° 0 mm 3 mps 756 mmHg 28%
15:00 +37°C° 0 mm 3 mps 756 mmHg 26%
16:00 +37°C° 0 mm 3 mps 756 mmHg 27%
17:00 +37°C° 0 mm 3 mps 756 mmHg 27%
18:00 +36°C° 0 mm 3 mps 756 mmHg 28%
19:00 +35°C° 0 mm 3 mps 756 mmHg 31%
20:00 +32°C° 0 mm 2 mps 756 mmHg 34%
21:00 +30°C° 0 mm 2 mps 756 mmHg 37%
22:00 +29°C° 0 mm 2 mps 756 mmHg 39%
23:00 +28°C° 0 mm 3 mps 756 mmHg 41%
Show more

We Need Your Consent

Meteoprog and our Service Providers may store and access personal data such as cookies, device identifiers or other similar technologies on your device and process such data to personalise content and ads, as well as provide social media features and to analyse the traffic.

  • Store and/or access information on your device

    Cookies, device identifiers or other information can be stored or accessed on your device for the purposes indicated above.

  • Personalised ads and content, ad and content measurement, audience insights, and products development

    Ads and content can be personalised based on a profile. More data can be added to better personalise ads and content. Ad and content performance can be measured. Insights about the audience who saw the ads and content can be derived. Such data can be used to develop or improve user’s experience, systems and software.

By clicking ‘I Agree’ you will allow the use of indicated cookies, device identifiers, web beacons or other similar technologies. Your settings can be changed in the browser on your device.

For certain purposes, legitimate interests may be relied on, rather than consent. You can read more about this in our Privacy and Cookie Policy.